sat.trackr.live / text

‹ back to catalog

GOSAT 2 (IBUKI 1)

NORAD 43672 · 2018-084B

PAYLOAD ACTIVE UNKNOWN

§ Identity

Operator
Country
JPN
Launch date
2018-10-29
Launch site
TANSC
Launch vehicle
Mass (kg)
RCS (m²)

External: N2YO · Heavens-Above · Gunter

§ Orbital elements

Epoch: 2026-09-19T06:32:14.674848Z

Period
97.02 min
Inclination
97.8861°
Eccentricity
0.0001574
Mean motion
14.84231123 rev/d
Perigee alt
614.9 km
Apogee alt
617.1 km
Semi-major
6,994.1 km
B*
1.1111e-4
RAAN
12.6526°
Arg perigee
96.8080°
Mean anomaly
263.3313°
Rev number
42,751

§ Raw data

GOSAT 2 (IBUKI 1)1 43672U 18084B   26262.27239207  .00000877  00000+0  11111-3 0  99922 43672  97.8861  12.6526 0001574  96.8080 263.3313 14.84231123427512

JSON: /api/v1/satellites/43672 · /tle

For live sub-satellite position, see the globe view (requires WebGL).

§ Visibility from observer

Set your observer location to see the next 7 days of passes ≥ 10°. The values pass through the URL so the page stays shareable.

No JS? Fill the form by hand. The geolocation button needs JavaScript.